Location: Unspecified
(48.2082°N, 0.0000°E)
Time: 22:55:19
(UTC+00:00)

Transit 4A - Pass Details

Date: 25 June 2019
Orbit: 862 x 982 km, 66.8° (Epoch: 15 July)

Event Time Altitude Azimuth Distance (km) Brightness Sun altitude
Rises 05:57:22 0° 160° (SSE) 3,612 11.0 16.4°
Reaches altitude 10° 06:00:46 10° 142° (SE) 2,691 10.7 16.9°
Maximum altitude 06:04:41 17° 103° (ESE) 2,223 11.2 17.6°
Drops below altitude 10° 06:08:38 10° 64° (ENE) 2,734 12.5 18.2°
Sets 06:12:07 0° 46° (NE) 3,694 12.1 18.8°
